GW3993 Weather Reports


time (UTC)temp
F
wind
direction
speed
knots
gust
knots
rain 1hr
in
rain 24hr
in
rain mn
in
humidity
%
barometer
mb
20260505225821 48 297 0.0 0.0 0.00 0.00 0.00 80 1018.1
20260505225318 49 265 0.0 0.0 0.00 0.00 0.00 80 1018.2
20260505224813 49 269 0.0 0.0 0.00 0.00 0.00 79 1018.2
20260505224311 50 244 1.7 1.7 0.00 0.00 0.00 79 1018.4
20260505223808 49 277 0.9 0.9 0.00 0.00 0.00 78 1018.4
20260505223305 49 297 0.9 0.9 0.00 0.00 0.00 76 1018.1
20260505222800 50 110 0.0 0.0 0.00 0.00 0.00 75 1018.0
20260505222258 50 274 0.0 0.0 0.00 0.00 0.00 73 1018.0
20260505221755 51 298 0.9 0.9 0.00 0.00 0.00 72 1018.4
20260505221251 52 166 0.9 1.7 0.00 0.00 0.00 71 1018.4
20260505220747 53 216 0.9 0.9 0.00 0.00 0.00 71 1018.5
20260505220245 53 241 2.6 2.6 0.00 0.00 0.00 72 1018.4
20260505215743 53 282 4.3 6.1 0.00 0.02 0.02 71 1018.6
20260505215240 54 282 2.6 2.6 0.00 0.02 0.02 70 1018.1
20260505214738 54 274 4.3 5.2 0.00 0.02 0.02 70 1018.2
20260505214235 53 287 6.1 7.0 0.00 0.02 0.02 70 1018.2
20260505213732 53 270 2.6 2.6 0.00 0.02 0.02 71 1018.4
20260505213229 53 272 4.3 6.1 0.00 0.02 0.02 72 1018.1
20260505212725 53 281 4.3 5.2 0.00 0.02 0.02 73 1018.5
20260505212223 53 265 2.6 4.3 0.00 0.02 0.02 73 1018.7
20260505211720 53 273 2.6 4.3 0.00 0.02 0.02 72 1018.4
20260505211217 53 287 5.2 7.0 0.00 0.02 0.02 72 1018.4
20260505210713 53 280 7.8 8.7 0.00 0.02 0.02 73 1018.4
20260505210210 53 232 6.1 7.0 0.00 0.02 0.02 72 1018.0
20260505205708 53 251 7.0 8.7 0.00 0.02 0.02 72 1018.0
20260505205206 53 275 3.5 6.1 0.00 0.02 0.02 73 1018.0
20260505204702 53 304 7.0 8.7 0.00 0.02 0.02 72 1017.7
20260505204200 53 264 5.2 7.0 0.00 0.02 0.02 72 1017.7
20260505203657 53 278 6.1 7.8 0.00 0.02 0.02 72 1017.5
20260505203154 52 265 4.3 4.3 0.00 0.02 0.02 73 1017.8
20260505202649 52 271 0.0 0.0 0.00 0.02 0.02 74 1017.8
20260505202146 53 256 4.3 5.2 0.00 0.02 0.02 75 1017.9
20260505201642 53 292 5.2 6.1 0.00 0.02 0.02 75 1017.9
20260505201141 53 272 5.2 7.0 0.00 0.02 0.02 74 1018.0
20260505200638 52 249 1.7 1.7 0.00 0.02 0.02 74 1017.8
20260505200135 52 349 3.5 5.2 0.00 0.02 0.02 75 1018.0
20260505195631 52 292 0.9 1.7 0.00 0.02 0.02 75 1017.8
20260505195128 51 287 1.7 1.7 0.00 0.02 0.02 75 1017.9
20260505194625 52 296 1.7 1.7 0.00 0.02 0.02 74 1017.8
20260505194121 52 30 3.5 4.3 0.00 0.02 0.02 75 1017.7
20260505193618 52 351 0.9 0.9 0.00 0.02 0.02 74 1017.8
20260505193115 53 300 0.9 1.7 0.00 0.02 0.02 73 1017.8
20260505192614 53 292 0.9 1.7 0.00 0.02 0.02 73 1017.8
20260505192111 53 249 0.9 0.9 0.00 0.02 0.02 72 1017.8
20260505191609 53 145 0.9 0.9 0.00 0.02 0.02 72 1017.7
20260505191108 53 133 1.7 1.7 0.00 0.02 0.02 72 1017.7
20260505190603 54 269 0.0 0.9 0.00 0.02 0.02 71 1017.7
20260505190058 55 231 0.9 0.9 0.00 0.02 0.02 70 1017.5
20260505185555 55 235 7.0 7.8 0.00 0.02 0.02 70 1017.3
20260505185052 55 256 6.1 7.8 0.00 0.02 0.02 70 1017.4
20260505184548 55 232 8.7 8.7 0.00 0.02 0.02 70 1017.3
20260505184045 55 229 4.3 7.8 0.00 0.02 0.02 70 1017.3
20260505183542 54 234 2.6 5.2 0.00 0.02 0.02 70 1017.2
20260505183039 54 253 5.2 7.8 0.00 0.02 0.02 72 1017.1
20260505182535 53 256 7.0 8.7 0.00 0.02 0.02 73 1017.0
20260505182032 53 238 5.2 7.0 0.00 0.02 0.02 75 1017.2
20260505181529 54 275 3.5 5.2 0.00 0.02 0.02 75 1017.0
20260505181026 54 236 9.6 13.0 0.00 0.02 0.02 74 1016.9
20260505180521 54 251 8.7 9.6 0.00 0.02 0.02 73 1016.9
20260505180021 54 238 5.2 6.1 0.00 0.02 0.02 73 1017.0
20260505175515 54 240 7.8 9.6 0.00 0.02 0.02 72 1016.7
20260505175012 54 268 7.8 12.2 0.00 0.02 0.02 72 1016.3
20260505174509 54 264 7.8 12.2 0.00 0.02 0.02 72 1016.6
20260505174005 54 239 9.6 12.2 0.00 0.02 0.02 73 1016.7
20260505173502 54 263 6.1 7.8 0.00 0.02 0.02 73 1016.6
20260505172958 53 253 3.5 6.1 0.00 0.02 0.02 74 1016.4
20260505172457 53 260 3.5 5.2 0.00 0.02 0.02 74 1016.3
20260505171956 53 158 2.6 2.6 0.00 0.02 0.02 74 1016.3
20260505171453 53 95 4.3 7.8 0.00 0.02 0.02 75 1016.3
20260505170949 53 276 7.0 7.8 0.00 0.02 0.02 76 1015.9
20260505170446 53 301 5.2 6.1 0.00 0.02 0.02 76 1016.3
20260505165941 53 239 5.2 7.0 0.00 0.02 0.02 77 1016.6
20260505165438 53 246 3.5 5.2 0.00 0.02 0.02 77 1016.6
20260505164933 53 93 2.6 2.6 0.00 0.02 0.02 78 1016.5
20260505164430 53 249 3.5 4.3 0.00 0.02 0.02 77 1016.5
20260505163928 53 278 4.3 5.2 0.00 0.02 0.02 78 1016.4
20260505163427 53 242 3.5 4.3 0.00 0.02 0.02 78 1016.3
20260505162926 53 294 4.3 7.0 0.00 0.02 0.02 77 1016.4
20260505162421 53 274 3.5 5.2 0.00 0.02 0.02 77 1015.9
20260505161918 53 260 7.8 8.7 0.00 0.02 0.02 78 1015.9
20260505161414 53 246 7.8 9.6 0.00 0.02 0.02 79 1015.7
20260505160912 52 233 6.1 7.8 0.00 0.02 0.02 80 1015.9
20260505160410 52 233 7.8 9.6 0.00 0.02 0.02 79 1015.8
20260505153344 53 240 7.8 8.7 0.00 0.01 0.01 79 1016.0
20260505152840 53 225 7.8 9.6 0.00 0.01 0.01 77 1016.1
20260505152337 54 253 2.6 4.3 0.00 0.01 0.01 76 1015.9
20260505151831 54 299 7.0 9.6 0.00 0.01 0.01 76 1015.4
20260505151328 54 250 6.1 7.8 0.00 0.01 0.01 77 1015.7
20260505150825 55 318 4.3 6.1 0.00 0.01 0.01 76 1015.6
20260505150322 55 275 5.2 6.1 0.00 0.01 0.01 74 1015.7
20260505140246 58 325 5.2 6.1 0.00 0.01 0.01 61 1014.9
20260505130210 60 280 7.0 7.8 0.00 0.01 0.01 54 1014.7
20260505124700 60 276 7.0 11.3 0.00 0.01 0.01 58 1014.7
20260505124157 60 270 3.5 6.1 0.00 0.01 0.01 60 1014.6
20260505123653 60 248 4.3 6.1 0.00 0.01 0.01 58 1014.8
20260505123150 60 245 4.3 5.2 0.00 0.01 0.01 57 1014.6
20260505122646 60 234 2.6 4.3 0.00 0.01 0.01 58 1014.7
20260505122143 60 277 4.3 6.1 0.00 0.01 0.01 57 1014.6
20260505121640 60 240 6.1 7.8 0.00 0.01 0.01 59 1014.5
20260505121137 61 238 7.8 9.6 0.00 0.01 0.01 57 1014.6
20260505120627 61 225 7.0 7.8 0.00 0.01 0.01 59 1014.5
20260505120123 62 255 6.1 9.6 0.00 0.01 0.01 59 1014.8
20260505115618 61 244 4.3 5.2 0.00 0.01 0.01 60 1014.5
20260505115115 61 274 5.2 6.1 0.00 0.01 0.01 60 1014.9
20260505114612 60 309 5.2 6.1 0.00 0.01 0.01 61 1014.8
20260505114109 59 322 6.1 7.8 0.00 0.01 0.01 64 1015.0
20260505113605 58 248 2.6 4.3 0.00 0.01 0.01 66 1015.2
20260505113102 58 274 3.5 4.3 0.00 0.01 0.01 68 1015.1
20260505112558 57 300 3.5 5.2 0.00 0.01 0.01 69 1015.2
20260505112056 57 305 6.1 7.0 0.00 0.01 0.01 69 1015.2
20260505111555 57 300 4.3 6.1 0.00 0.01 0.01 70 1015.1
20260505111051 57 296 3.5 4.3 0.00 0.01 0.01 71 1015.4
20260505110548 57 306 4.3 6.1 0.00 0.01 0.01 71 1015.7
20260505102020 55 53 1.7 1.7 0.00 0.01 0.01 86 1016.1
20260505101519 56 37 1.7 2.6 0.00 0.01 0.01 87 1016.4
20260505101015 55 11 1.7 1.7 0.00 0.01 0.01 88 1016.4
20260505100512 54 330 1.7 1.7 0.00 0.01 0.01 89 1016.5
20260505100009 54 353 0.9 0.9 0.00 0.01 0.01 89 1016.3
20260505095505 53 55 2.6 2.6 0.00 0.01 0.01 90 1016.4
20260505095001 54 39 1.7 2.6 0.00 0.01 0.01 90 1016.5
20260505094458 54 60 2.6 4.3 0.00 0.01 0.01 90 1016.6
20260505093954 54 19 1.7 1.7 0.00 0.01 0.01 91 1016.6
20260505093451 54 13 2.6 4.3 0.00 0.01 0.01 91 1016.7
20260505092949 53 79 1.7 1.7 0.00 0.01 0.01 91 1016.6
20260505092446 54 37 0.9 1.7 0.00 0.01 0.01 92 1016.6
20260505091943 53 23 0.9 1.7 0.00 0.01 0.01 92 1016.6
20260505091441 54 353 2.6 2.6 0.00 0.01 0.01 92 1016.6
20260505090939 53 346 2.6 2.6 0.00 0.01 0.01 93 1016.8
20260505090437 53 357 0.9 1.7 0.00 0.01 0.01 93 1016.7
20260505085934 53 1 3.5 4.3 0.00 0.01 0.01 93 1016.8
20260505085431 53 100 1.7 1.7 0.00 0.01 0.01 94 1016.8
20260505084930 53 78 3.5 4.3 0.00 0.01 0.01 93 1016.7
20260505084427 53 136 2.6 2.6 0.00 0.01 0.01 93 1016.7
20260505083925 53 310 0.9 0.9 0.00 0.01 0.01 94 1016.7
20260505083423 53 330 0.9 0.9 0.00 0.01 0.01 94 1016.9
20260505082918 53 289 0.9 0.9 0.00 0.01 0.01 94 1016.9
20260505082414 52 333 0.9 0.9 0.00 0.01 0.01 94 1017.1
20260505081912 52 305 0.0 0.9 0.00 0.01 0.01 94 1016.9
20260505081408 52 311 0.9 0.9 0.00 0.01 0.01 94 1017.0
20260505080905 53 303 0.9 1.7 0.00 0.01 0.01 94 1017.1
20260505080401 53 302 0.0 0.9 0.00 0.01 0.01 94 1017.0
20260505075856 52 296 0.0 0.0 0.00 0.01 0.01 94 1016.9
20260505075353 52 307 0.0 0.0 0.00 0.01 0.01 94 1016.9
20260505074851 52 293 0.0 0.0 0.00 0.01 0.01 94 1017.1
20260505074348 51 292 0.0 0.9 0.07 0.01 0.01 94 1016.9
20260505073845 51 336 1.7 1.7 0.07 0.01 0.01 94 1017.0
20260505073343 51 329 0.9 1.7 0.00 0.00 0.00 94 1017.0
20260505072840 51 328 0.9 1.7 0.00 0.00 0.00 94 1017.0
20260505072336 51 299 0.0 0.0 0.00 0.00 0.00 94 1017.1
20260505071832 51 335 0.9 0.9 0.00 0.00 0.00 94 1017.1
20260505071328 51 325 0.9 1.7 0.00 0.00 0.00 94 1016.8
20260505070827 51 23 0.9 1.7 0.00 0.00 0.00 94 1016.6
20260505070323 51 259 0.0 0.0 0.00 0.00 0.00 94 1016.8
20260505065818 51 276 0.0 0.0 0.00 0.00 0.00 94 1016.6
20260505065315 51 241 0.0 0.0 0.00 0.00 0.00 94 1016.6
20260505064813 51 232 1.7 1.7 0.00 0.00 0.00 94 1016.4
20260505064309 51 248 0.0 0.0 0.00 0.00 0.00 94 1016.3
20260505063808 50 195 0.0 0.0 0.00 0.00 0.00 94 1016.4
20260505063303 51 301 0.0 0.9 0.00 0.00 0.00 94 1016.3
20260505062800 51 315 0.0 0.0 0.00 0.00 0.00 94 1016.3
20260505062258 51 343 1.7 2.6 0.00 0.00 0.00 94 1016.0
20260505061754 51 7 2.6 4.3 0.00 0.00 0.00 94 1016.3
20260505061252 51 336 0.0 0.0 0.00 0.00 0.00 94 1016.0
20260505060749 51 289 0.0 0.0 0.00 0.00 0.00 94 1015.7
20260505060246 50 305 0.0 0.0 0.00 0.00 0.00 94 1015.9
20260505055741 50 292 0.0 0.0 0.00 0.00 0.00 94 1015.8
20260505055233 50 292 0.0 0.0 0.00 0.00 0.00 94 1015.6
20260505054730 50 282 0.0 0.0 0.00 0.00 0.00 94 1015.8
20260505054228 49 266 0.0 0.0 0.00 0.00 0.00 94 1015.7
20260505053726 49 267 0.0 0.0 0.00 0.00 0.00 94 1015.7
20260505053222 49 261 0.0 0.0 0.00 0.00 0.00 93 1015.9
20260505052719 49 260 0.0 0.0 0.00 0.00 0.00 93 1015.7
20260505052216 49 208 0.0 0.0 0.00 0.00 0.00 93 1015.5
20260505051713 49 263 0.0 0.0 0.00 0.00 0.00 93 1015.5
20260505051211 49 263 0.0 0.0 0.00 0.00 0.00 93 1015.5
20260505050709 48 267 0.0 0.0 0.00 0.00 0.00 93 1015.5
20260505050207 48 256 0.0 0.0 0.00 0.00 0.00 93 1015.6
20260505041642 49 275 0.0 0.0 0.00 0.00 0.00 92 1015.5
20260505041140 49 334 0.0 0.0 0.00 0.00 0.00 92 1015.2
20260505040636 49 305 0.0 0.0 0.00 0.00 0.00 92 1015.3
20260505040134 49 304 0.0 0.0 0.00 0.00 0.00 92 1015.4
20260505035630 48 299 0.0 0.0 0.00 0.00 0.00 92 1015.5
20260505035126 48 296 0.0 0.0 0.00 0.00 0.00 92 1015.3
20260505034623 49 297 0.0 0.0 0.00 0.00 0.00 91 1015.5
20260505034120 49 298 0.0 0.0 0.00 0.00 0.00 91 1015.4
20260505033616 49 300 0.0 0.0 0.00 0.00 0.00 91 1015.6
20260505033115 49 288 0.0 0.0 0.00 0.00 0.00 91 1015.4
20260505032612 49 285 0.0 0.0 0.00 0.00 0.00 91 1015.5
20260505032109 49 286 0.0 0.0 0.00 0.00 0.00 91 1015.3
20260505031606 49 292 0.0 0.0 0.00 0.00 0.00 91 1015.2
20260505031102 49 292 0.9 0.9 0.00 0.00 0.00 91 1015.4
20260505030559 49 328 1.7 1.7 0.00 0.00 0.00 90 1015.2
20260505030055 49 314 0.9 0.9 0.00 0.00 0.00 90 1015.4
20260505025551 47 332 1.7 2.6 0.00 0.00 0.00 90 1015.2
20260505025050 47 278 0.0 0.0 0.00 0.00 0.00 90 1015.3
20260505024547 47 279 0.0 0.0 0.00 0.00 0.00 90 1015.3
20260505024044 48 282 0.0 0.0 0.00 0.00 0.00 89 1015.1
20260505023541 47 282 0.0 0.0 0.00 0.00 0.00 89 1015.3
20260505023039 47 281 0.0 0.0 0.00 0.00 0.00 89 1015.4
20260505022536 47 289 0.0 0.0 0.00 0.00 0.00 89 1015.2
20260505022033 47 292 0.0 0.9 0.00 0.00 0.00 89 1015.4
20260505021529 47 293 0.0 0.0 0.00 0.00 0.00 89 1015.2
20260505021026 47 289 0.9 0.9 0.00 0.00 0.00 89 1015.2
20260505020520 47 250 0.9 0.9 0.00 0.00 0.00 89 1015.4
20260505020018 48 263 0.0 0.0 0.00 0.00 0.00 88 1015.3
20260505015515 48 228 0.9 0.9 0.00 0.00 0.00 88 1015.3
20260505015011 48 255 1.7 1.7 0.00 0.00 0.00 88 1015.1
20260505014508 49 281 0.9 0.9 0.00 0.00 0.00 88 1015.1
20260505014006 49 303 0.9 0.9 0.00 0.00 0.00 88 1015.3
20260505013502 49 286 0.9 0.9 0.00 0.00 0.00 88 1015.0
20260505013000 48 286 0.9 1.7 0.00 0.00 0.00 88 1015.2
20260505012458 48 300 0.0 0.0 0.00 0.00 0.00 87 1015.2
20260505011954 48 301 0.9 0.9 0.00 0.00 0.00 87 1015.3
20260505011450 48 284 0.9 0.9 0.00 0.00 0.00 87 1015.3
20260505010947 48 248 0.9 1.7 0.00 0.00 0.00 86 1015.4
20260505010443 48 292 0.9 0.9 0.00 0.00 0.00 86 1015.3
20260505005939 48 308 1.7 2.6 0.00 0.00 0.00 85 1015.4
20260505005436 48 290 0.9 0.9 0.00 0.00 0.00 85 1015.5
20260505004934 48 263 0.0 0.0 0.00 0.00 0.00 85 1015.3
20260505004430 49 290 0.9 0.9 0.00 0.00 0.00 85 1015.4
20260505003927 49 291 0.9 0.9 0.00 0.00 0.00 84 1015.8
20260505003424 50 290 0.0 0.0 0.00 0.00 0.00 84 1015.7
20260505002920 50 287 0.9 0.9 0.00 0.00 0.00 84 1015.7
20260505002417 50 308 2.6 2.6 0.00 0.00 0.00 84 1015.7
20260505001915 51 293 0.9 0.9 0.00 0.00 0.00 84 1015.9
20260505001413 51 284 0.9 1.7 0.00 0.00 0.00 84 1016.0
20260505000910 51 279 2.6 4.3 0.00 0.00 0.00 83 1015.7
20260505000408 51 293 1.7 1.7 0.00 0.00 0.00 83 1015.9
20260504235904 51 304 1.7 1.7 0.00 0.00 0.00 82 1015.7
20260504235401 52 289 1.7 1.7 0.00 0.00 0.00 82 1015.9
20260504234857 52 226 1.7 2.6 0.00 0.00 0.00 82 1015.8
20260504234355 52 283 1.7 1.7 0.00 0.00 0.00 82 1015.7
20260504233851 52 217 1.7 1.7 0.00 0.00 0.00 82 1015.8
20260504233347 51 251 0.9 0.9 0.00 0.00 0.00 82 1015.8
20260504232844 51 277 1.7 2.6 0.00 0.00 0.00 83 1016.0
20260504232341 51 294 0.9 1.7 0.00 0.00 0.00 82 1015.9
20260504231838 52 323 1.7 1.7 0.00 0.00 0.00 82 1015.9
20260504231334 52 261 0.9 1.7 0.00 0.00 0.00 83 1015.6
20260504230830 51 258 0.9 1.7 0.00 0.00 0.00 83 1015.8
20260504230329 51 298 3.5 4.3 0.00 0.00 0.00 83 1015.8